Regional Weather Roundup
Issued by NWS

Home | Current Version | Previous Version | Text Only | Print | Product List | Glossary Off
Versions: 1 2 3 4 5 6 7 8 9 10 11 12 13 14 15 16 17 18 19 20 21 22 23 24 25 26 27 28 29 30 31 32 33 34 35 36 37 38 39 40 41 42 43 44 45 46 47 48 49 50

809
ASUS45 KBOI 242010
RWRID

IDAHO REGIONAL WEATHER ROUNDUP
NATIONAL WEATHER SERVICE BOISE ID
200 PM MDT SUN JUL 24 2016

NOTE: "FAIR" INDICATES FEW OR NO CLOUDS BELOW 12000 FEET
WITH NO SIGNIFICANT WEATHER AND/OR OBSTRUCTIONS TO VISIBILITY

IDZ012-014-242100-
SOUTHWEST IDAHO


CITY           SKY/WX    TMP DP  RH WIND       PRES   REMARKS
BOISE          SUNNY     86  38  18 NW6       30.06F
CALDWELL       NOT AVBL
MOUNTAIN HOME  SUNNY     86  39  18 VRB6      30.05F
$$

IDZ016-017-242100-
SOUTHCENTRAL IDAHO


CITY           SKY/WX    TMP DP  RH WIND       PRES   REMARKS
BURLEY         SUNNY     81  40  23 CALM      30.12F
JEROME         SUNNY     81  40  23 W5        30.13F
TWIN FALLS     SUNNY     83  38  20 W8        30.12F
$$

IDZ019>023-242100-
SOUTHEAST IDAHO


CITY           SKY/WX    TMP DP  RH WIND       PRES   REMARKS
IDAHO FALLS    SUNNY     82  33  17 W7        30.16F
POCATELLO      SUNNY     83  35  18 W9        30.16F
REXBURG        SUNNY     79  35  20 VRB6      30.17F
$$

IDZ006-010-011-018-031-032-242100-
CENTRAL IDAHO MOUNTAINS


CITY           SKY/WX    TMP DP  RH WIND       PRES   REMARKS
MCCALL         SUNNY     78  41  26 MISG      30.17F
HAILEY         SUNNY     79  39  24 SE9       30.20F
STANLEY          N/A     81  30  15 N7        30.24S
SALMON         SUNNY     79  41  25 NW6       30.07F
CHALLIS        SUNNY     83  34  17 NE6       30.14F
$$

IDZ002-004-006-007-026-242100-
NORTHERN IDAHO


CITY           SKY/WX    TMP DP  RH WIND       PRES   REMARKS
LEWISTON       SUNNY     87  41  19 VRB5      30.04F
LOWELL           N/A     86  51  29 S3        30.01F
COEUR D`ALENE  SUNNY     81  50  34 CALM      30.07F
MULLAN PASS    SUNNY     66  43  43 VRB3      30.25F
$$




USA.gov is the U.S. government's official web portal to all federal, state and local government web resources and services.